Other Surface Observations
Issued by NWS Great Falls, MT

Home | Current Version | Previous Version | Text Only | Print | Product List | Glossary On
Versions: 1 2 3 4 5 6 7 8 9 10 11 12 13 14 15 16 17 18 19 20 21 22 23 24 25 26 27 28 29 30 31 32 33 34 35 36 37 38 39 40 41 42 43 44 45 46 47 48 49 50
878
SXUS55 KTFX 220941
OSOTFX

AREA AWOS OBSERVATIONS
NATIONAL WEATHER SERVICE GREAT FALLS MT
0241 AM MST Wed Nov 22 2017

METAR KCII 220940Z AUTO 22010G18KT 160V260 10SM 14/03 A2994 RMK A01
METAR K6S0 220940Z AUTO 26019G26KT 10SM FEW075 12/03 A3011 RMK A01
METAR K6S8 220935Z AUTO 24009G15KT 10SM 07/01 A3004 RMK A01



USA.gov is the U.S. government's official web portal to all federal, state and local government web resources and services.